sat.trackr.live / text

‹ back to catalog

STARLINK-37535

NORAD 69465 · 2026-127Y

PAYLOAD ACTIVE UNKNOWN

§ Identity

Operator
Country
US
Launch date
2026-06-08
Launch site
AFETR
Launch vehicle
Mass (kg)
RCS (m²)

Purposes: comms

External: N2YO · Heavens-Above · Gunter

§ Orbital elements

Epoch: 2026-09-19T23:59:56.086080Z

Period
93.85 min
Inclination
53.1582°
Eccentricity
0.0001044
Mean motion
15.34400787 rev/d
Perigee alt
462.0 km
Apogee alt
463.4 km
Semi-major
6,840.8 km
B*
2.1587e-4
RAAN
168.1672°
Arg perigee
84.1225°
Mean anomaly
275.9896°
Rev number
1,611

§ Raw data

STARLINK-375351 69465U 26127Y   26262.99995470  .00006924  00000+0  21587-3 0  99942 69465  53.1582 168.1672 0001044  84.1225 275.9896 15.34400787 16112

JSON: /api/v1/satellites/69465 · /tle

For live sub-satellite position, see the globe view (requires WebGL).

§ Visibility from observer

Set your observer location to see the next 7 days of passes ≥ 10°. The values pass through the URL so the page stays shareable.

No JS? Fill the form by hand. The geolocation button needs JavaScript.